Regional Weather Roundup
Issued by NWS

Home | Current Version | Previous Version | Text Only | Print | Product List | Glossary On
Versions: 1 2 3 4 5 6 7 8 9 10 11 12 13 14 15 16 17 18 19 20 21 22 23 24 25 26 27 28 29 30 31 32 33 34 35 36 37 38 39 40 41 42 43 44 45 46 47 48 49 50
898
ASUS44 KEWX 231403
RWRTX
SOUTH TEXAS REGIONAL WEATHER ROUNDUP
NATIONAL WEATHER SERVICE AUSTIN/SAN ANTONIO TX
800 AM CST MON JAN 23 2017

NOTE: "FAIR" INDICATED FEW OR NO CLOUDS BELOW 12,000 FEET WITH NO
SIGNIFICANT WEATHER AND/OR OBSTRUCTIONS TO VISIBILITY.

* - THESE STATIONS ARE NOT NWS OR FAA STATIONS...AND ARE NOT SUBJECT
    TO NWS AND FAA QUALITY CONTROL.

TXZ171-172-183>190-231500-
TEXAS HILL COUNTRY AND EDWARDS PLATEAU

CITY           SKY/WX    TMP DP  RH WIND       PRES   REMARKS
JUNCTION       CLOUDY    32  29  88 W3        30.05R
*LLANO         CLEAR     36  32  87 CALM      30.07R
BURNET         CLEAR     41  34  76 CALM        N/A
*HORSESHOE BAY CLEAR     37  35  94 CALM      30.03S
*KERRVILLE     CLOUDY    33  32  94 W5        30.05R WCI  29
*FREDERICKSBRG CLEAR     34  30  86 CALM      30.04R
*ROCKSPRINGS   CLOUDY    48  27  43 N7        30.07S WCI  45
*BOERNE STAGE  CLEAR     36  32  87 CALM      30.06R
*CASTROVILLE   CLEAR     42  33  70 NW10      30.06R WCI  36
HONDO          CLOUDY    39  31  72 N7        30.05R WCI  34
*UVALDE        CLOUDY    38  32  78 CALM      30.07R
DEL RIO        CLOUDY    43  30  60 N5        30.05R WCI  40
LAUGHLIN AFB   CLEAR     37  32  82 NE5       30.06R WCI  34
CARRIZO SPRGS  CLOUDY    36  32  87 CALM      30.06R
*EAGLE PASS      N/A    N/A N/A N/A MISG        N/A
$$

TXZ173-191>194-202-209-217>225-228-231500-
CENTRAL AND SOUTH CENTRAL TEXAS

CITY           SKY/WX    TMP DP  RH WIND       PRES   REMARKS
GEORGETOWN     CLEAR     43  32  65 W5        30.04R WCI  40
AUSTIN/BERGSTM CLEAR     45  36  70 W3        30.04R
AUSTIN/MABRY   CLEAR     47  35  63 VRB3      30.04R
*AUSTIN/EXEC   CLEAR     46  36  66 CALM      30.04R
*LAGO VISTA    CLEAR     48  34  59 W5        30.03S WCI  46
SAN MARCOS     NOT AVBL
NEW BRAUNFELS  CLEAR     42  35  76 CALM      30.03R
RANDOLPH AFB   CLEAR     44  34  68 SW5       30.04R WCI  42
PT SAN ANTONIO CLEAR     42  34  74 N6        30.02R WCI  38
SAN ANTONIO    CLEAR     47  33  58 NW3       30.05R
STINSON FIELD  CLEAR     45  36  70 N3        30.04R
*PLEASANTON    CLEAR     40  35  83 CALM      30.05R
*LA GRANGE     CLEAR     43  40  88 CALM      30.02R
*GIDDINGS      CLEAR     47  36  66 NW5       30.04R WCI  44
*GONZALES      CLEAR     44  37  77 N3        30.04R
$$

TXZ163>164-176>182-195>201-210>213-226-227-235-231500-
SOUTHEAST TEXAS

CITY           SKY/WX    TMP DP  RH WIND       PRES   REMARKS
COLLEGE STN    CLEAR     46  37  71 NW6       30.01R WCI  43
*BRYAN         CLEAR     44  37  77 W6        30.02R WCI  40
*CALDWELL      NOT AVBL
*CROCKETT        N/A    N/A N/A N/A MISG        N/A
*BRENHAM       CLEAR     46  39  78 W5        30.03R WCI  43
HUNTSVILLE     CLEAR     46  35  65 W7        29.98R WCI  42
CONROE         CLEAR     46  38  73 NW5       29.98R WCI  44
HOUSTON BUSH   CLEAR     50  38  63 NW8       29.99R WCI  47
HOUSTON HOBBY  CLEAR     53  36  52 NW9       29.99R
*HOUSTON SW AP CLEAR     48  38  68 W7        30.01R WCI  45
PEARLAND       CLEAR     50  39  66 W5        30.01R WCI  48
HOUSTON HOOKS  CLEAR     48  38  68 NW7       29.99R WCI  45
ELLINGTON FLD  CLEAR     52  36  54 W8        29.99R
SUGAR LAND     CLEAR     47  40  76 W8        30.01R WCI  43
*HOUSTON EXEC  CLEAR     45  37  76 W7        30.02R WCI  41
*CLEVELAND MUN CLEAR     47  37  70 NW5       29.98R WCI  45
*WHARTON       CLEAR     47  40  74 W6        30.03R WCI  45
*COLUMBUS      FAIR      44  38  79 W5        30.04R WCI  41
*EAGLE LAKE    SUNNY     49  41  73 W7        30.02R WCI  46
$$

TXZ214>216-236>238-231500-
THE UPPER TEXAS COAST

CITY           SKY/WX    TMP DP  RH WIND       PRES   REMARKS
*ORANGE        PTCLDY    49  38  64 NW6       29.96R WCI  47
PORT ARTHUR    PTCLDY    50  38  63 W3        29.95R
GALVESTON      CLEAR     53  43  68 W9        30.00R
ANGLETON       CLEAR     50  39  66 W3        30.02R
*BAY CITY      CLEAR     47  42  81 NW5       30.02S WCI  45
PALACIOS       NOT AVBL
$$

TXZ229>234-239>247-231500-
TEXAS COASTAL BEND AND RIO GRANDE PLAINS

CITY           SKY/WX    TMP DP  RH WIND       PRES   REMARKS
VICTORIA       CLEAR     45  40  82 NW7       30.04R WCI  41
*BEEVILLE      CLEAR     50  38  62 NW6       30.04R WCI  48
ROCKPORT       CLEAR     56  41  57 NW9       30.04R
*PORT ARANSAS  CLEAR     52  43  70 NW6       30.04R
*PORT LAVACA   CLEAR     46  40  80 CALM      30.04R
*INGLESIDE     CLEAR     45  37  72 NE6       30.04R WCI  42
CORPUS CHRISTI PTCLDY    46  33  60 W9        30.05R WCI  41
CORPUS NAS     CLEAR     54  46  74 NW6       30.04R
*ROBSTOWN      CLEAR     50  37  59 NW9       30.06R WCI  46
ALICE          CLEAR     48  34  58 NW7       30.05R WCI  45
KINGSVILLE NAS NOT AVBL
COTULLA        CLOUDY    43  33  68 NW7       30.06R WCI  39
*FAITH RANCH   CLEAR     41  30  65 CALM      30.07R
LAREDO         CLOUDY    45  32  60 CALM      30.07F
$$

TXZ248>255-231500-
DEEP SOUTH TEXAS

CITY           SKY/WX    TMP DP  RH WIND       PRES   REMARKS
BROWNSVILLE    CLEAR     52  37  56 W7        30.08R
PORT ISABEL    CLEAR     49  37  63 W7        30.07R WCI  46
*SOUTH PADRE   NOT AVBL
HARLINGEN      CLEAR     52  37  56 W9        30.07R
*HEBBRONVILLE  CLEAR     48  29  48 W6        30.07S WCI  46
MCALLEN        CLEAR     53  34  48 W3        30.09R
*WESLACO       CLEAR     51  37  59 SW3       30.07R
FALFURRIAS     CLEAR     44  32  63 W5        30.06R WCI  41
EDINBURG       CLEAR     49  34  55 SW3       30.08R
*ZAPATA        CLEAR     38  26  62 CALM      30.07S
$$

TXZ213>215-236>238-242>244-246-247-251-254-255-231500-
CMAN STATIONS

STATION/POSITION TIME  TEMP    WIND        PRES    WAVE
                       AIR SEA DIR/SP/G            HT/PER
                 (UTC) (F)     (DEG/KT/KT) (MB)    (FT/S)
SABINE PASS      1330   48 65  290/  4/  7 1015.2
SEA RIM ST PARK  1300   47     310/  6/  7 1014.0
NORTH JETTY/GLS  1330   55 62  290/ 12/ 12   N/A
EAGLE POINT      1330   49 50  280/  4/  6 1014.9
MORGANS POINT    1330   53 62  290/  7/  9 1014.8
PORT O`CONNOR    1330   58     320/ 12/ 14 1016.3
PORT ARANSAS     1300   55 62  330/  9/ 10 1016.5
MALAQUITE BEACH  1330   54 61  260/  7/  7 1017.3
BAFFIN BAY       1330   56 59  270/  7/  8 1017.5
PORT ISABEL      1330   51 66  190/  4/  5 1017.9
$$

GMZ080-GMZ150>470-231500-
OFFSHORE BUOY REPORTS

STATION/POSITION TIME  TEMP    WIND        PRES    WAVE
                       AIR SEA DIR/SP/G            HT/PER
                 (UTC) (F)     (DEG/KT/KT) (MB)    (FT/S)
20 E GALVESTON   1250   59 64  310/ 19/ 23 1013.6    3/ 4
90 E PT ARANSAS  1250   64 71  330/ 17/ 19 1015.4    4/ 5
35 NE PT MANSFLD 1250   69     360/ 14/ 16 1015.4    3/ 6
200 E PT ISABEL  1250   69 74  330/ 23/ 29 1014.1   12/10
$$




USA.gov is the U.S. government's official web portal to all federal, state and local government web resources and services.